Change the Weather History Date:

Tuesday, August 5, 2014

  Actual Average Record
Temperature  
Mean Temperature 65 °F 71 °F  
Max Temperature 71 °F 85 °F 104 °F (1941)
Min Temperature 59 °F 56 °F 40 °F (1977)
Degree Days  
Heating Degree Days 0 1  
Month to date heating degree days 0 5  
Since 1 June heating degree days 214 176  
Since 1 July heating degree days 49 39  
Cooling Degree Days 0 6  
Month to date cooling degree days 14 30  
Year to date cooling degree days 151 259  
Since 1 June cooling degree days 121 249  
Growing Degree Days 16 (Base 50)    
Moisture  
Dew Point 61 °F    
Average Humidity 87    
Maximum Humidity 100    
Minimum Humidity 73    
Precipitation  
Precipitation 0.25 in 0.05 in 0.86 in (2011)
Month to date precipitation 1.95 0.26  
Year to date precipitation 14.93 11.01  
Sea Level Pressure  
Sea Level Pressure 30.08 in    
Wind  
Wind Speed 9 mph (ESE)    
Max Wind Speed 15 mph    
Max Gust Speed 18 mph    
Visibility 8 miles    
Events Rain    
T = Trace of Precipitation, MM = Missing Value Source: NWS Daily Summary

Daily Weather History Graph

Daily Weather History Graph

Search for Another Location

Airport or City:

Trip Planner

Search our weather history database for the weather conditions in past years. The results will help you decide how hot, cold, wet, or windy it might be!

Date:

Astronomy

Aug. 05, 2014 Rise Set
Actual Time 5:36 AM MDT 8:17 PM MDT
Civil Twilight 5:01 AM MDT 8:51 PM MDT
Nautical Twilight 4:17 AM MDT 9:35 PM MDT
Astronomical Twilight 3:26 AM MDT 10:26 PM MDT
Moon 3:36 PM MDT (8/5) 12:25 AM MDT (8/5)
Length of Visible Light 15h 50m
Length of Day
14h 41m
Waxing Gibbous, 68% of the Moon is Illuminated
Aug 5
Waxing Gibbous
Aug 10
Full
Aug 17
Last Quarter
Aug 25
New
Sep 2
First Quarter

Hourly Weather History & Observations

Time (MDT) Temp. Dew Point Humidity Pressure Visibility Wind Dir Wind Speed Gust Speed Precip Events Conditions
12:56 AM 60.1 °F 55.9 °F 86% 30.09 in 10.0 mi SE 10.4 mph - N/A   Mostly Cloudy
1:56 AM 60.1 °F 55.9 °F 86% 30.07 in 10.0 mi ESE 10.4 mph - N/A   Scattered Clouds
2:56 AM 61.0 °F 55.0 °F 81% 30.06 in 10.0 mi SE 10.4 mph - N/A   Overcast
3:56 AM 61.0 °F 54.0 °F 78% 30.06 in 10.0 mi SE 6.9 mph - N/A   Overcast
4:56 AM 60.1 °F 54.0 °F 80% 30.07 in 10.0 mi ESE 6.9 mph - N/A   Overcast
5:56 AM 60.1 °F 55.0 °F 83% 30.08 in 10.0 mi SE 5.8 mph - N/A   Overcast
6:28 AM 60.1 °F 55.9 °F 86% 30.10 in 4.0 mi SSE 9.2 mph - 0.03 in Rain Light Rain
6:52 AM 60.8 °F 55.4 °F 82% 30.11 in 6.0 mi SE 6.9 mph - 0.04 in Rain Light Rain
6:56 AM 60.1 °F 55.9 °F 86% 30.08 in 5.0 mi ESE 6.9 mph - 0.04 in Rain Light Rain
7:56 AM 60.1 °F 57.0 °F 90% 30.09 in 3.0 mi ESE 5.8 mph - 0.03 in Rain Light Rain
8:16 AM 61.0 °F 57.9 °F 90% 30.11 in 9.0 mi ESE 5.8 mph - 0.01 in Rain Light Rain
8:46 AM 62.1 °F 57.9 °F 86% 30.11 in 10.0 mi ESE 6.9 mph - 0.01 in   Overcast
8:56 AM 62.1 °F 57.9 °F 86% 30.09 in 10.0 mi SE 9.2 mph - 0.01 in   Overcast
9:09 AM 63.0 °F 59.0 °F 87% 30.10 in 10.0 mi SE 11.5 mph - N/A   Mostly Cloudy
9:29 AM 64.0 °F 60.1 °F 87% 30.10 in 10.0 mi SE 11.5 mph - N/A   Mostly Cloudy
9:44 AM 64.9 °F 61.0 °F 87% 30.10 in 10.0 mi SE 10.4 mph - N/A   Overcast
9:56 AM 64.9 °F 61.0 °F 87% 30.08 in 10.0 mi SSE 12.7 mph - N/A   Overcast
10:56 AM 68.0 °F 62.1 °F 81% 30.08 in 10.0 mi SE 8.1 mph - N/A   Mostly Cloudy
11:56 AM 70.0 °F 62.1 °F 76% 30.07 in 10.0 mi SE 8.1 mph - N/A   Overcast
12:04 PM 69.1 °F 62.1 °F 78% 30.10 in 10.0 mi SE 8.1 mph - N/A   Mostly Cloudy
12:14 PM 70.0 °F 62.1 °F 76% 30.10 in 10.0 mi SE 8.1 mph - N/A   Overcast
12:47 PM 71.1 °F 62.1 °F 73% 30.10 in 10.0 mi South 9.2 mph - N/A   Mostly Cloudy
12:56 PM 70.0 °F 62.1 °F 76% 30.07 in 10.0 mi SSE 10.4 mph - N/A   Overcast
1:17 PM 69.1 °F 62.1 °F 78% 30.10 in 10.0 mi SSE 6.9 mph - N/A   Overcast
1:56 PM 70.0 °F 61.0 °F 73% 30.07 in 10.0 mi SE 6.9 mph - N/A   Mostly Cloudy
2:37 PM 68.0 °F 63.0 °F 84% 30.09 in 10.0 mi ESE 6.9 mph - 0.00 in Rain Light Rain
2:56 PM 68.0 °F 64.0 °F 87% 30.06 in 7.0 mi East 8.1 mph - 0.01 in Rain Light Rain
3:17 PM 68.0 °F 64.0 °F 87% 30.09 in 7.0 mi East 11.5 mph - 0.01 in Rain Light Rain
3:56 PM 66.9 °F 64.0 °F 90% 30.06 in 6.0 mi East 9.2 mph - 0.02 in Rain Light Rain
4:56 PM 66.0 °F 64.0 °F 93% 30.06 in 6.0 mi East 9.2 mph - 0.03 in Rain Light Rain
5:11 PM 66.0 °F 63.0 °F 90% 30.08 in 8.0 mi East 9.2 mph - 0.00 in   Overcast
5:30 PM 64.9 °F 63.0 °F 93% 30.08 in 6.0 mi East 8.1 mph - 0.01 in Rain Light Rain
5:56 PM 66.0 °F 64.0 °F 93% 30.06 in 4.0 mi East 10.4 mph - 0.02 in Rain Light Rain
6:15 PM 66.0 °F 64.0 °F 93% 30.07 in 5.0 mi East 10.4 mph - 0.00 in Rain Light Rain
6:56 PM 66.0 °F 64.9 °F 96% 30.05 in 4.0 mi East 9.2 mph - 0.01 in Rain Light Rain
7:22 PM 66.0 °F 64.0 °F 93% 30.07 in 5.0 mi East 10.4 mph - 0.02 in Rain Light Rain
7:43 PM 64.9 °F 64.0 °F 97% 30.07 in 4.0 mi ESE 10.4 mph - 0.03 in Rain Light Rain
7:56 PM 64.9 °F 64.9 °F 100% 30.05 in 4.0 mi East 10.4 mph - 0.04 in Rain Light Rain
8:03 PM 64.9 °F 64.9 °F 100% 30.07 in 4.0 mi East 10.4 mph - 0.01 in Rain Light Rain
8:56 PM 64.9 °F 64.0 °F 97% 30.04 in 7.0 mi ESE 9.2 mph - 0.01 in   Overcast
9:56 PM 64.0 °F 62.1 °F 93% 30.03 in 7.0 mi ESE 9.2 mph - N/A   Overcast
10:56 PM 63.0 °F 61.0 °F 93% 30.03 in 9.0 mi ESE 5.8 mph - N/A   Overcast
11:49 PM 62.1 °F 60.1 °F 93% 30.06 in 7.0 mi SE 10.4 mph - 0.00 in Rain Light Rain
11:56 PM 62.1 °F 60.1 °F 93% 30.04 in 5.0 mi SE 10.4 mph - 0.01 in Rain Light Rain